Time,TemperatureF,DewpointF,PressureIn,WindDirection,WindDirectionDegrees,WindSpeedMPH,WindSpeedGustMPH,Humidity,HourlyPrecipIn,Conditions,Clouds,dailyrainin,SolarRadiationWatts/m^2,SoftwareType,DateUTC
2013-08-16 00:01:00,71.6,66.5,30.01,ENE,71,4.5,11.5,84,0.00,CLR,,0.00,0.0,WeatherDisplay:10.37,2013-08-16 10:01:00,
2013-08-16 00:06:00,71.7,66.6,30.01,ENE,75,5.8,9.2,84,0.00,CLR,,0.00,0.0,WeatherDisplay:10.37,2013-08-16 10:06:00,
2013-08-16 00:11:00,71.7,66.6,30.01,ENE,76,4.7,7.0,84,0.00,CLR,,0.00,0.0,WeatherDisplay:10.37,2013-08-16 10:11:00,
2013-08-16 00:16:00,71.8,66.7,30.02,ENE,65,4.5,8.1,84,0.00,CLR,,0.00,0.0,WeatherDisplay:10.37,2013-08-16 10:16:00,
2013-08-16 00:21:00,71.7,66.9,30.01,East,79,3.6,11.5,85,0.00,CLR,,0.00,0.0,WeatherDisplay:10.37,2013-08-16 10:21:00,
2013-08-16 00:26:00,71.7,66.9,30.01,ENE,68,3.3,6.9,85,0.00,CLR,,0.00,0.0,WeatherDisplay:10.37,2013-08-16 10:26:00,
2013-08-16 00:31:00,71.7,66.9,30.01,NE,46,3.0,3.5,85,0.00,CLR,,0.00,0.0,WeatherDisplay:10.37,2013-08-16 10:31:00,
2013-08-16 00:36:00,71.7,66.6,30.01,NNE,33,2.9,5.8,84,0.00,CLR,,0.00,0.0,WeatherDisplay:10.37,2013-08-16 10:36:00,
2013-08-16 00:41:00,71.6,66.5,30.01,NNE,32,2.4,3.5,84,0.00,CLR,,0.00,0.0,WeatherDisplay:10.37,2013-08-16 10:41:00,
2013-08-16 00:46:00,71.6,66.5,30.01,East,80,3.7,8.0,84,0.00,CLR,,0.00,0.0,WeatherDisplay:10.37,2013-08-16 10:46:00,
2013-08-16 00:51:00,71.6,66.5,30.00,NNE,32,4.2,5.8,84,0.00,CLR,,0.00,0.0,WeatherDisplay:10.37,2013-08-16 10:51:00,
2013-08-16 00:56:00,71.7,66.3,30.01,NE,51,1.5,4.0,83,0.00,CLR,,0.00,0.0,WeatherDisplay:10.37,2013-08-16 10:56:00,
2013-08-16 01:01:00,71.7,66.3,30.01,ENE,61,2.9,5.8,83,0.00,CLR,,0.00,0.0,WeatherDisplay:10.37,2013-08-16 11:01:00,
2013-08-16 01:06:00,71.8,66.4,30.00,NE,55,2.1,4.6,83,0.00,CLR,,0.00,0.0,WeatherDisplay:10.37,2013-08-16 11:06:00,
2013-08-16 01:11:00,71.7,66.3,30.00,ENE,78,1.1,3.5,83,0.00,CLR,,0.00,0.0,WeatherDisplay:10.37,2013-08-16 11:11:00,
2013-08-16 01:16:00,71.8,66.4,30.00,NNE,23,0.8,3.5,83,0.00,CLR,,0.00,0.0,WeatherDisplay:10.37,2013-08-16 11:16:00,
2013-08-16 01:21:00,71.8,66.4,30.00,ENE,75,3.7,10.4,83,0.00,CLR,,0.00,0.0,WeatherDisplay:10.37,2013-08-16 11:21:00,
2013-08-16 01:26:00,71.9,66.5,30.00,ESE,112,2.6,6.9,83,0.00,CLR,,0.00,0.0,WeatherDisplay:10.37,2013-08-16 11:26:00,
2013-08-16 01:31:00,71.9,66.8,30.00,ESE,106,5.0,8.1,84,0.00,CLR,,0.00,0.0,WeatherDisplay:10.37,2013-08-16 11:31:00,
2013-08-16 01:36:00,71.5,67.1,30.00,East,100,6.6,15.0,86,0.00,CLR,,0.00,0.0,WeatherDisplay:10.37,2013-08-16 11:36:00,
2013-08-16 01:41:00,70.9,66.8,30.01,NE,53,4.4,6.9,87,0.01,RA,,0.01,0.0,WeatherDisplay:10.37,2013-08-16 11:41:00,
2013-08-16 01:46:00,70.4,66.7,30.00,ENE,66,4.4,8.1,88,0.01,RA,,0.01,0.0,WeatherDisplay:10.37,2013-08-16 11:46:00,
2013-08-16 01:51:00,70.1,66.4,29.99,ENE,68,3.5,4.6,88,0.01,CLR,,0.01,0.0,WeatherDisplay:10.37,2013-08-16 11:51:00,
2013-08-16 01:56:00,69.8,66.1,29.99,ENE,67,4.4,9.2,88,0.01,CLR,,0.01,0.0,WeatherDisplay:10.37,2013-08-16 11:56:00,
2013-08-16 02:01:00,69.7,66.0,29.99,NNE,30,6.3,9.2,88,0.01,CLR,,0.01,0.0,WeatherDisplay:10.37,2013-08-16 12:01:00,
2013-08-16 02:06:00,69.7,66.0,29.99,NE,42,2.6,5.8,88,0.01,CLR,,0.01,0.0,WeatherDisplay:10.37,2013-08-16 12:06:00,
2013-08-16 02:11:00,69.8,66.1,29.99,ENE,63,2.0,3.5,88,0.01,CLR,,0.01,0.0,WeatherDisplay:10.37,2013-08-16 12:11:00,
2013-08-16 02:16:00,69.8,66.1,29.99,ENE,74,3.2,4.6,88,0.01,CLR,,0.01,0.0,WeatherDisplay:10.37,2013-08-16 12:16:00,
2013-08-16 02:21:00,69.8,66.1,29.99,NE,34,5.0,11.5,88,0.01,CLR,,0.01,0.0,WeatherDisplay:10.37,2013-08-16 12:21:00,
2013-08-16 02:26:00,69.9,65.9,29.99,NNE,18,4.6,8.1,87,0.01,CLR,,0.01,0.0,WeatherDisplay:10.37,2013-08-16 12:26:00,
2013-08-16 02:31:00,70.0,66.0,29.99,ENE,63,5.5,8.1,87,0.01,CLR,,0.01,0.0,WeatherDisplay:10.37,2013-08-16 12:31:00,
2013-08-16 02:36:00,70.1,66.0,29.99,NE,47,1.9,5.8,87,0.01,CLR,,0.01,0.0,WeatherDisplay:10.37,2013-08-16 12:36:00,
2013-08-16 02:41:00,70.2,65.8,29.99,NE,56,2.0,8.1,86,0.00,CLR,,0.01,0.0,WeatherDisplay:10.37,2013-08-16 12:41:00,
2013-08-16 02:46:00,70.3,65.9,29.99,NE,47,2.8,3.5,86,0.00,CLR,,0.01,0.0,WeatherDisplay:10.37,2013-08-16 12:46:00,
2013-08-16 02:51:00,70.4,66.0,29.99,NNE,30,4.4,10.4,86,0.00,CLR,,0.01,0.0,WeatherDisplay:10.37,2013-08-16 12:51:00,
2013-08-16 02:56:00,70.5,66.1,29.98,NE,55,5.4,8.1,86,0.00,CLR,,0.01,0.0,WeatherDisplay:10.37,2013-08-16 12:56:00,
2013-08-16 03:01:00,70.6,66.2,29.98,NNE,26,3.5,8.1,86,0.00,CLR,,0.01,0.0,WeatherDisplay:10.37,2013-08-16 13:01:00,
2013-08-16 03:06:00,70.6,66.2,29.98,ENE,58,5.1,9.2,86,0.00,CLR,,0.01,0.0,WeatherDisplay:10.37,2013-08-16 13:06:00,
2013-08-16 03:11:00,70.7,66.3,29.98,ENE,70,3.4,6.0,86,0.00,CLR,,0.01,0.0,WeatherDisplay:10.37,2013-08-16 13:11:00,
2013-08-16 03:16:00,70.7,66.3,29.98,ENE,71,2.0,4.0,86,0.00,CLR,,0.01,0.0,WeatherDisplay:10.37,2013-08-16 13:16:00,
2013-08-16 03:21:00,70.6,65.9,29.98,ENE,67,3.3,6.9,85,0.00,CLR,,0.01,0.0,WeatherDisplay:10.37,2013-08-16 13:21:00,
2013-08-16 03:26:00,70.6,65.9,29.98,NNW,346,3.1,3.5,85,0.00,CLR,,0.01,0.0,WeatherDisplay:10.37,2013-08-16 13:26:00,
2013-08-16 03:31:00,70.6,65.9,29.98,NNE,17,3.2,11.5,85,0.00,CLR,,0.01,0.0,WeatherDisplay:10.37,2013-08-16 13:31:00,
2013-08-16 03:36:00,70.7,65.6,29.98,NNE,19,4.6,9.2,84,0.00,CLR,,0.01,0.0,WeatherDisplay:10.37,2013-08-16 13:36:00,
2013-08-16 03:41:00,70.8,65.7,29.97,ENE,66,5.2,9.2,84,0.00,CLR,,0.01,0.0,WeatherDisplay:10.37,2013-08-16 13:41:00,
2013-08-16 03:46:00,70.8,65.7,29.98,ENE,63,3.9,6.9,84,0.00,CLR,,0.01,0.0,WeatherDisplay:10.37,2013-08-16 13:46:00,
2013-08-16 03:51:00,70.8,65.7,29.98,NE,53,3.3,4.6,84,0.00,CLR,,0.01,0.0,WeatherDisplay:10.37,2013-08-16 13:51:00,
2013-08-16 03:56:00,70.8,65.7,29.98,ENE,58,3.7,8.1,84,0.00,CLR,,0.01,0.0,WeatherDisplay:10.37,2013-08-16 13:56:00,
2013-08-16 04:01:00,70.8,65.7,29.99,NE,54,2.6,4.6,84,0.00,CLR,,0.01,0.0,WeatherDisplay:10.37,2013-08-16 14:01:00,
2013-08-16 04:06:00,70.9,65.8,29.99,NNE,28,2.2,4.0,84,0.00,CLR,,0.01,0.0,WeatherDisplay:10.37,2013-08-16 14:06:00,
2013-08-16 04:11:00,71.0,65.9,29.99,NE,45,2.4,3.5,84,0.00,CLR,,0.01,0.0,WeatherDisplay:10.37,2013-08-16 14:11:00,
2013-08-16 04:16:00,70.9,66.2,29.99,ENE,62,1.6,4.6,85,0.00,CLR,,0.01,0.0,WeatherDisplay:10.37,2013-08-16 14:16:00,
2013-08-16 04:21:00,70.6,66.2,29.99,ENE,66,4.6,9.0,86,0.01,RA,,0.02,0.0,WeatherDisplay:10.37,2013-08-16 14:21:00,
2013-08-16 04:26:00,70.2,66.1,29.99,ENE,65,2.6,5.8,87,0.01,RA,,0.02,0.0,WeatherDisplay:10.37,2013-08-16 14:26:00,
2013-08-16 04:31:00,69.9,66.2,29.98,NE,49,4.8,9.2,88,0.01,CLR,,0.02,0.0,WeatherDisplay:10.37,2013-08-16 14:31:00,
2013-08-16 04:36:00,69.6,65.9,29.99,NE,44,3.4,5.8,88,0.01,CLR,,0.02,0.0,WeatherDisplay:10.37,2013-08-16 14:36:00,
2013-08-16 04:41:00,69.5,66.1,29.99,ENE,61,3.5,8.0,89,0.01,CLR,,0.02,0.0,WeatherDisplay:10.37,2013-08-16 14:41:00,
2013-08-16 04:46:00,69.5,66.1,29.99,ENE,74,5.0,10.0,89,0.01,CLR,,0.02,0.0,WeatherDisplay:10.37,2013-08-16 14:46:00,
2013-08-16 04:51:00,69.5,66.1,29.99,NE,55,4.1,6.9,89,0.01,CLR,,0.02,0.0,WeatherDisplay:10.37,2013-08-16 14:51:00,
2013-08-16 04:56:00,69.5,66.1,29.99,NE,53,3.9,8.1,89,0.01,CLR,,0.02,0.0,WeatherDisplay:10.37,2013-08-16 14:56:00,
2013-08-16 05:01:00,69.6,66.2,29.99,ENE,74,4.0,8.1,89,0.01,CLR,,0.02,0.0,WeatherDisplay:10.37,2013-08-16 15:01:00,
2013-08-16 05:06:00,69.7,66.3,29.99,ESE,109,4.9,6.9,89,0.01,CLR,,0.02,0.0,WeatherDisplay:10.37,2013-08-16 15:06:00,
2013-08-16 05:11:00,69.8,66.4,29.99,NE,51,3.5,5.8,89,0.01,CLR,,0.02,0.0,WeatherDisplay:10.37,2013-08-16 15:11:00,
2013-08-16 05:16:00,69.8,66.4,29.99,NE,49,4.6,9.2,89,0.01,CLR,,0.02,0.0,WeatherDisplay:10.37,2013-08-16 15:16:00,
2013-08-16 05:21:00,69.9,66.5,29.99,ENE,69,3.5,4.6,89,0.00,CLR,,0.02,0.0,WeatherDisplay:10.37,2013-08-16 15:21:00,
2013-08-16 05:26:00,69.9,66.2,29.99,NE,52,3.5,5.8,88,0.00,CLR,,0.02,0.0,WeatherDisplay:10.37,2013-08-16 15:26:00,
2013-08-16 05:31:00,69.9,66.2,29.99,NNE,32,3.9,8.1,88,0.00,CLR,,0.02,0.0,WeatherDisplay:10.37,2013-08-16 15:31:00,
2013-08-16 05:36:00,69.9,66.2,29.99,NNE,15,4.6,10.4,88,0.00,CLR,,0.02,0.0,WeatherDisplay:10.37,2013-08-16 15:36:00,
2013-08-16 05:41:00,70.0,66.0,29.99,ENE,60,4.6,11.5,87,0.00,CLR,,0.02,0.0,WeatherDisplay:10.37,2013-08-16 15:41:00,
2013-08-16 05:46:00,70.0,66.0,29.99,East,82,5.2,11.5,87,0.00,CLR,,0.02,0.0,WeatherDisplay:10.37,2013-08-16 15:46:00,
2013-08-16 05:51:00,70.2,66.1,29.99,NE,56,4.7,6.9,87,0.00,CLR,,0.02,0.0,WeatherDisplay:10.37,2013-08-16 15:51:00,
2013-08-16 05:56:00,70.3,66.2,29.99,North,355,5.4,11.5,87,0.00,CLR,,0.02,0.0,WeatherDisplay:10.37,2013-08-16 15:56:00,
2013-08-16 06:01:00,70.4,66.0,30.00,NNE,24,5.7,15.0,86,0.00,CLR,,0.02,0.0,WeatherDisplay:10.37,2013-08-16 16:01:00,
2013-08-16 06:06:00,70.5,66.1,30.00,NE,48,6.7,10.4,86,0.00,CLR,,0.02,0.0,WeatherDisplay:10.37,2013-08-16 16:06:00,
2013-08-16 06:11:00,70.6,66.2,30.00,NNE,19,5.3,10.4,86,0.00,CLR,,0.02,5.0,WeatherDisplay:10.37,2013-08-16 16:11:00,
2013-08-16 06:16:00,70.8,66.4,30.00,NE,36,5.0,12.7,86,0.00,BKN,,0.02,5.0,WeatherDisplay:10.37,2013-08-16 16:16:00,
2013-08-16 06:21:00,70.9,66.5,30.00,NNE,30,4.3,9.2,86,0.00,CLR,,0.02,7.0,WeatherDisplay:10.37,2013-08-16 16:21:00,
2013-08-16 06:26:00,71.0,66.6,30.00,NE,48,4.6,6.9,86,0.00,CLR,,0.02,9.0,WeatherDisplay:10.37,2013-08-16 16:26:00,
2013-08-16 06:31:00,71.1,66.4,30.00,East,86,5.0,13.8,85,0.00,CLR,,0.02,12.0,WeatherDisplay:10.37,2013-08-16 16:31:00,
2013-08-16 06:36:00,71.2,66.8,30.01,NE,45,2.1,9.2,86,0.00,BKN,,0.02,21.0,WeatherDisplay:10.37,2013-08-16 16:36:00,
2013-08-16 06:41:00,71.0,66.6,30.01,NE,38,4.4,10.4,86,0.00,SCT,,0.02,47.0,WeatherDisplay:10.37,2013-08-16 16:41:00,
2013-08-16 06:46:00,70.9,66.8,30.02,NE,49,5.0,9.2,87,0.00,CLR,,0.02,63.0,WeatherDisplay:10.37,2013-08-16 16:46:00,
2013-08-16 06:51:00,70.8,66.7,30.02,NNW,342,4.8,9.2,87,0.00,BKN,,0.02,33.0,WeatherDisplay:10.37,2013-08-16 16:51:00,
2013-08-16 06:56:00,70.7,66.6,30.02,North,9,4.8,10.4,87,0.00,BKN,,0.02,37.0,WeatherDisplay:10.37,2013-08-16 16:56:00,
2013-08-16 07:01:00,70.6,66.2,30.02,NE,38,4.2,5.8,86,0.00,BKN,,0.02,42.0,WeatherDisplay:10.37,2013-08-16 17:01:00,
2013-08-16 07:06:00,70.5,66.1,30.02,NNE,15,4.5,9.0,86,0.00,CLR,,0.02,40.0,WeatherDisplay:10.37,2013-08-16 17:06:00,
2013-08-16 07:11:00,70.6,66.2,30.02,North,360,3.6,10.4,86,0.00,BKN,,0.02,63.0,WeatherDisplay:10.37,2013-08-16 17:11:00,
2013-08-16 07:16:00,70.8,66.1,30.02,NE,49,4.5,6.9,85,0.00,BKN,,0.02,67.0,WeatherDisplay:10.37,2013-08-16 17:16:00,
2013-08-16 07:21:00,70.9,66.2,30.02,NE,47,3.0,3.5,85,0.00,SCT,,0.02,116.0,WeatherDisplay:10.37,2013-08-16 17:21:00,
2013-08-16 07:26:00,71.3,66.2,30.02,ENE,61,3.9,6.0,84,0.00,BKN,,0.02,98.0,WeatherDisplay:10.37,2013-08-16 17:26:00,
2013-08-16 07:31:00,71.5,66.4,30.02,NE,52,4.5,9.2,84,0.00,SCT,,0.02,116.0,WeatherDisplay:10.37,2013-08-16 17:31:00,
2013-08-16 07:36:00,71.8,66.7,30.03,NE,46,2.7,3.5,84,0.00,BKN,,0.02,105.0,WeatherDisplay:10.37,2013-08-16 17:36:00,
2013-08-16 07:41:00,71.9,66.5,30.03,ENE,76,3.1,7.0,83,0.00,BKN,,0.02,125.0,WeatherDisplay:10.37,2013-08-16 17:41:00,
2013-08-16 07:46:00,72.1,66.6,30.03,ENE,61,5.7,10.4,83,0.00,SCT,,0.02,144.0,WeatherDisplay:10.37,2013-08-16 17:46:00,
2013-08-16 07:51:00,72.4,66.9,30.03,NE,51,3.7,9.2,83,0.00,CLR,,0.02,392.0,WeatherDisplay:10.37,2013-08-16 17:51:00,
2013-08-16 07:56:00,72.7,66.9,30.03,NNE,30,2.4,4.6,82,0.00,CLR,,0.02,79.0,WeatherDisplay:10.37,2013-08-16 17:56:00,
2013-08-16 08:01:00,73.0,67.2,30.03,ENE,65,5.5,6.0,82,0.00,SCT,,0.02,181.0,WeatherDisplay:10.37,2013-08-16 18:01:00,
2013-08-16 08:07:00,73.3,67.5,30.03,NE,47,5.5,5.5,82,0.00,CLR,,0.02,501.0,WeatherDisplay:10.37,2013-08-16 18:07:00,
2013-08-16 08:12:00,73.9,67.3,30.04,ENE,65,6.4,12.7,80,0.00,CLR,,0.02,496.0,WeatherDisplay:10.37,2013-08-16 18:12:00,
2013-08-16 08:17:00,74.1,67.2,30.04,ENE,61,3.6,13.0,79,0.00,BKN,,0.02,183.0,WeatherDisplay:10.37,2013-08-16 18:17:00,
2013-08-16 08:22:00,74.1,66.8,30.04,East,85,6.8,13.8,78,0.00,OVC,,0.02,137.0,WeatherDisplay:10.37,2013-08-16 18:22:00,
2013-08-16 08:27:00,74.0,66.3,30.04,NE,37,3.9,11.5,77,0.00,BKN,,0.02,207.0,WeatherDisplay:10.37,2013-08-16 18:27:00,
2013-08-16 08:32:00,74.0,66.3,30.04,ENE,74,2.0,6.9,77,0.00,BKN,,0.02,202.0,WeatherDisplay:10.37,2013-08-16 18:32:00,
2013-08-16 08:37:00,74.2,66.9,30.04,NE,49,5.8,10.4,78,0.00,CLR,,0.02,202.0,WeatherDisplay:10.37,2013-08-16 18:37:00,
2013-08-16 08:42:00,74.7,67.0,30.04,ENE,74,4.1,10.4,77,0.00,BKN,,0.02,183.0,WeatherDisplay:10.37,2013-08-16 18:42:00,
2013-08-16 08:47:00,75.0,66.9,30.04,ENE,62,8.0,13.8,76,0.00,BKN,,0.02,271.0,WeatherDisplay:10.37,2013-08-16 18:47:00,
2013-08-16 08:52:00,75.2,66.7,30.04,NE,41,8.6,11.5,75,0.00,CLR,,0.02,638.0,WeatherDisplay:10.37,2013-08-16 18:52:00,
2013-08-16 08:57:00,75.5,67.0,30.04,ENE,69,7.5,11.5,75,0.00,CLR,,0.02,577.0,WeatherDisplay:10.37,2013-08-16 18:57:00,
2013-08-16 09:02:00,76.1,67.2,30.04,NE,55,5.1,8.1,74,0.00,CLR,,0.02,577.0,WeatherDisplay:10.37,2013-08-16 19:02:00,
2013-08-16 09:07:00,76.6,67.3,30.04,ENE,65,6.4,13.8,73,0.00,CLR,,0.02,596.0,WeatherDisplay:10.37,2013-08-16 19:07:00,
2013-08-16 09:12:00,77.0,67.3,30.04,ENE,71,5.4,12.7,72,0.00,CLR,,0.02,613.0,WeatherDisplay:10.37,2013-08-16 19:12:00,
2013-08-16 09:17:00,77.3,67.2,30.04,NE,52,5.2,9.2,71,0.00,CLR,,0.02,679.0,WeatherDisplay:10.37,2013-08-16 19:17:00,
2013-08-16 09:22:00,77.6,66.6,30.04,East,98,9.2,13.8,69,0.00,CLR,,0.02,668.0,WeatherDisplay:10.37,2013-08-16 19:22:00,
2013-08-16 09:27:00,77.6,66.6,30.04,NE,44,6.6,11.5,69,0.00,CLR,,0.02,677.0,WeatherDisplay:10.37,2013-08-16 19:27:00,
2013-08-16 09:32:00,77.8,66.8,30.04,NE,47,5.8,11.5,69,0.00,CLR,,0.02,717.0,WeatherDisplay:10.37,2013-08-16 19:32:00,
2013-08-16 09:37:00,78.3,67.3,30.04,ENE,57,7.6,10.0,69,0.00,CLR,,0.02,717.0,WeatherDisplay:10.37,2013-08-16 19:37:00,
2013-08-16 09:42:00,78.5,67.1,30.04,East,84,6.6,12.7,68,0.00,CLR,,0.02,749.0,WeatherDisplay:10.37,2013-08-16 19:42:00,
2013-08-16 09:47:00,78.5,66.6,30.04,NE,53,6.5,11.5,67,0.00,OVC,,0.02,141.0,WeatherDisplay:10.37,2013-08-16 19:47:00,
2013-08-16 09:52:00,78.6,66.7,30.04,ESE,107,6.8,11.5,67,0.00,CLR,,0.02,816.0,WeatherDisplay:10.37,2013-08-16 19:52:00,
2013-08-16 09:57:00,78.9,66.6,30.04,NE,34,7.0,12.0,66,0.00,CLR,,0.02,877.0,WeatherDisplay:10.37,2013-08-16 19:57:00,
2013-08-16 10:02:00,79.3,67.4,30.04,East,101,6.0,11.5,67,0.00,CLR,,0.02,909.0,WeatherDisplay:10.37,2013-08-16 20:02:00,
2013-08-16 10:07:00,79.8,67.0,30.04,NE,42,4.6,12.7,65,0.00,CLR,,0.02,847.0,WeatherDisplay:10.37,2013-08-16 20:07:00,
2013-08-16 10:12:00,79.9,66.6,30.04,NE,47,7.1,10.4,64,0.00,CLR,,0.02,812.0,WeatherDisplay:10.37,2013-08-16 20:12:00,
2013-08-16 10:17:00,80.0,66.3,30.04,NE,49,7.9,11.5,63,0.00,CLR,,0.02,817.0,WeatherDisplay:10.37,2013-08-16 20:17:00,
2013-08-16 10:22:00,80.2,66.5,30.04,NNE,13,7.4,10.4,63,0.00,CLR,,0.02,889.0,WeatherDisplay:10.37,2013-08-16 20:22:00,
2013-08-16 10:27:00,80.0,66.3,30.03,NE,56,6.8,11.5,63,0.00,CLR,,0.02,842.0,WeatherDisplay:10.37,2013-08-16 20:27:00,
2013-08-16 10:32:00,80.3,66.1,30.04,ENE,78,10.5,18.4,62,0.00,CLR,,0.02,879.0,WeatherDisplay:10.37,2013-08-16 20:32:00,
2013-08-16 10:37:00,80.7,66.5,30.03,NE,51,5.6,9.0,62,0.00,CLR,,0.02,868.0,WeatherDisplay:10.37,2013-08-16 20:37:00,
2013-08-16 10:42:00,81.2,66.5,30.04,NE,44,8.2,12.0,61,0.00,CLR,,0.02,877.0,WeatherDisplay:10.37,2013-08-16 20:42:00,
2013-08-16 10:47:00,81.0,65.3,30.04,NE,34,7.7,13.8,59,0.00,CLR,,0.02,918.0,WeatherDisplay:10.37,2013-08-16 20:47:00,
2013-08-16 10:52:00,80.8,66.1,30.03,NE,55,5.6,10.0,61,0.00,CLR,,0.02,888.0,WeatherDisplay:10.37,2013-08-16 20:52:00,
2013-08-16 10:57:00,80.8,66.1,30.03,NNE,26,4.5,11.5,61,0.00,CLR,,0.02,944.0,WeatherDisplay:10.37,2013-08-16 20:57:00,
2013-08-16 11:02:00,80.9,66.7,30.03,NE,44,5.0,10.4,62,0.00,CLR,,0.02,918.0,WeatherDisplay:10.37,2013-08-16 21:02:00,
2013-08-16 11:07:00,81.1,66.4,30.04,NE,44,8.1,10.4,61,0.00,CLR,,0.02,944.0,WeatherDisplay:10.37,2013-08-16 21:07:00,
2013-08-16 11:12:00,81.2,66.9,30.03,ENE,69,7.0,11.5,62,0.00,CLR,,0.02,928.0,WeatherDisplay:10.37,2013-08-16 21:12:00,
2013-08-16 11:17:00,81.6,66.8,30.04,North,349,5.3,10.0,61,0.00,CLR,,0.02,981.0,WeatherDisplay:10.37,2013-08-16 21:17:00,
2013-08-16 11:22:00,81.9,66.6,30.03,NE,44,4.7,11.5,60,0.00,CLR,,0.02,965.0,WeatherDisplay:10.37,2013-08-16 21:22:00,
2013-08-16 11:27:00,82.0,67.2,30.03,NE,46,7.9,12.7,61,0.00,CLR,,0.02,1021.0,WeatherDisplay:10.37,2013-08-16 21:27:00,
2013-08-16 11:32:00,82.2,67.4,30.02,NNE,32,5.9,10.4,61,0.00,CLR,,0.02,958.0,WeatherDisplay:10.37,2013-08-16 21:32:00,
2013-08-16 11:37:00,82.3,66.0,30.02,East,79,6.2,11.5,58,0.00,CLR,,0.02,962.0,WeatherDisplay:10.37,2013-08-16 21:37:00,
2013-08-16 11:42:00,82.4,66.1,30.02,ENE,68,6.1,13.8,58,0.00,CLR,,0.02,965.0,WeatherDisplay:10.37,2013-08-16 21:42:00,
2013-08-16 11:47:00,82.7,66.9,30.02,NNE,32,5.0,10.4,59,0.00,CLR,,0.02,974.0,WeatherDisplay:10.37,2013-08-16 21:47:00,
2013-08-16 11:52:00,82.5,66.2,30.01,NNE,17,5.9,11.5,58,0.00,CLR,,0.02,1020.0,WeatherDisplay:10.37,2013-08-16 21:52:00,
2013-08-16 11:57:00,82.4,66.6,30.01,East,92,5.8,10.4,59,0.00,CLR,,0.02,995.0,WeatherDisplay:10.37,2013-08-16 21:57:00,
2013-08-16 12:02:00,82.8,67.0,30.01,ENE,69,5.5,11.5,59,0.00,CLR,,0.02,983.0,WeatherDisplay:10.37,2013-08-16 22:02:00,
2013-08-16 12:07:00,83.0,66.7,30.01,NNW,340,5.7,10.4,58,0.00,CLR,,0.02,990.0,WeatherDisplay:10.37,2013-08-16 22:07:00,
2013-08-16 12:12:00,83.4,67.6,30.01,North,351,5.9,10.4,59,0.00,CLR,,0.02,1090.0,WeatherDisplay:10.37,2013-08-16 22:12:00,
2013-08-16 12:17:00,83.5,67.2,30.00,ENE,60,2.1,5.0,58,0.00,OVC,,0.02,206.0,WeatherDisplay:10.37,2013-08-16 22:17:00,
2013-08-16 12:22:00,83.6,67.8,30.00,ESE,105,9.0,15.0,59,0.00,CLR,,0.02,1014.0,WeatherDisplay:10.37,2013-08-16 22:22:00,
2013-08-16 12:27:00,83.6,67.8,30.00,East,96,7.8,11.5,59,0.00,CLR,,0.02,993.0,WeatherDisplay:10.37,2013-08-16 22:27:00,
2013-08-16 12:32:00,83.5,67.7,30.00,ENE,65,5.3,9.2,59,0.00,CLR,,0.02,1005.0,WeatherDisplay:10.37,2013-08-16 22:32:00,
2013-08-16 12:37:00,83.7,67.4,30.00,NE,49,8.1,13.0,58,0.00,CLR,,0.02,1000.0,WeatherDisplay:10.37,2013-08-16 22:37:00,
2013-08-16 12:42:00,83.7,66.8,30.00,NE,44,3.5,9.2,57,0.00,CLR,,0.02,1005.0,WeatherDisplay:10.37,2013-08-16 22:42:00,
2013-08-16 12:47:00,84.1,67.2,30.00,ENE,78,5.6,10.4,57,0.00,CLR,,0.02,1000.0,WeatherDisplay:10.37,2013-08-16 22:47:00,
2013-08-16 12:52:00,84.4,66.5,30.00,North,355,2.5,3.5,55,0.00,CLR,,0.02,998.0,WeatherDisplay:10.37,2013-08-16 22:52:00,
2013-08-16 12:57:00,84.4,66.5,30.00,ENE,67,1.8,3.5,55,0.00,CLR,,0.02,1048.0,WeatherDisplay:10.37,2013-08-16 22:57:00,
2013-08-16 13:02:00,84.6,67.2,30.00,NE,43,3.2,8.1,56,0.00,CLR,,0.02,1116.0,WeatherDisplay:10.37,2013-08-16 23:02:00,
2013-08-16 13:07:00,84.7,67.8,30.00,NNE,14,3.7,10.4,57,0.00,SCT,,0.02,568.0,WeatherDisplay:10.37,2013-08-16 23:07:00,
2013-08-16 13:12:00,84.3,66.9,30.00,East,84,4.5,8.1,56,0.00,CLR,,0.02,1042.0,WeatherDisplay:10.37,2013-08-16 23:12:00,
2013-08-16 13:17:00,84.1,67.7,30.00,ENE,57,4.7,9.2,58,0.00,CLR,,0.02,1088.0,WeatherDisplay:10.37,2013-08-16 23:17:00,
2013-08-16 13:22:00,83.9,68.0,30.00,East,85,4.3,11.0,59,0.00,OVC,,0.02,269.0,WeatherDisplay:10.37,2013-08-16 23:22:00,
2013-08-16 13:27:00,83.7,67.8,29.99,NE,34,4.2,9.2,59,0.00,CLR,,0.02,1148.0,WeatherDisplay:10.37,2013-08-16 23:27:00,
2013-08-16 13:32:00,83.8,67.4,29.99,ENE,57,3.4,6.9,58,0.00,FEW,,0.02,1181.0,WeatherDisplay:10.37,2013-08-16 23:32:00,
2013-08-16 13:37:00,83.9,67.5,29.99,NNE,17,4.2,9.2,58,0.00,BKN,,0.02,374.0,WeatherDisplay:10.37,2013-08-16 23:37:00,
2013-08-16 13:42:00,84.1,68.7,29.99,East,81,4.9,8.1,60,0.00,CLR,,0.02,1280.0,WeatherDisplay:10.37,2013-08-16 23:42:00,
2013-08-16 13:47:00,84.2,68.3,29.99,East,86,4.1,8.1,59,0.00,FEW,,0.02,661.0,WeatherDisplay:10.37,2013-08-16 23:47:00,
2013-08-16 13:52:00,84.1,67.7,29.99,ENE,70,4.1,9.2,58,0.00,CLR,,0.02,1181.0,WeatherDisplay:10.37,2013-08-16 23:52:00,
2013-08-16 13:57:00,84.1,67.7,29.99,ESE,107,7.8,11.5,58,0.00,CLR,,0.02,1134.0,WeatherDisplay:10.37,2013-08-16 23:57:00,
2013-08-16 14:02:00,84.3,67.9,29.99,NE,41,4.0,6.0,58,0.00,CLR,,0.02,1174.0,WeatherDisplay:10.37,2013-08-17 00:02:00,
2013-08-16 14:07:00,84.7,68.8,29.99,North,5,4.4,8.1,59,0.00,OVC,,0.02,244.0,WeatherDisplay:10.37,2013-08-17 00:07:00,
2013-08-16 14:12:00,84.3,68.9,29.99,ENE,67,7.0,11.0,60,0.00,CLR,,0.02,1123.0,WeatherDisplay:10.37,2013-08-17 00:12:00,
2013-08-16 14:17:00,83.7,68.8,29.99,NE,55,5.4,11.5,61,0.00,OVC,,0.02,244.0,WeatherDisplay:10.37,2013-08-17 00:17:00,
2013-08-16 14:22:00,83.0,68.6,29.99,ESE,103,6.1,10.4,62,0.00,OVC,,0.02,216.0,WeatherDisplay:10.37,2013-08-17 00:22:00,
2013-08-16 14:27:00,82.6,68.7,29.98,East,88,4.3,11.5,63,0.00,OVC,,0.02,281.0,WeatherDisplay:10.37,2013-08-17 00:27:00,
2013-08-16 14:32:00,82.1,68.3,29.98,NE,34,6.2,12.7,63,0.00,BKN,,0.02,387.0,WeatherDisplay:10.37,2013-08-17 00:32:00,
2013-08-16 14:37:00,81.8,68.4,29.98,North,360,3.1,4.6,64,0.00,BKN,,0.02,1160.0,WeatherDisplay:10.37,2013-08-17 00:37:00,
2013-08-16 14:42:00,81.9,68.1,29.99,East,82,5.6,10.4,63,0.00,OVC,,0.02,218.0,WeatherDisplay:10.37,2013-08-17 00:42:00,
2013-08-16 14:47:00,81.4,67.6,29.98,NE,49,6.5,13.8,63,0.00,BKN,,0.02,350.0,WeatherDisplay:10.37,2013-08-17 00:47:00,
2013-08-16 14:52:00,81.2,67.9,29.98,NNE,17,7.1,11.5,64,0.00,BKN,,0.02,383.0,WeatherDisplay:10.37,2013-08-17 00:52:00,
2013-08-16 14:57:00,81.3,68.4,29.98,NE,38,5.2,9.2,65,0.00,BKN,,0.02,309.0,WeatherDisplay:10.37,2013-08-17 00:57:00,
2013-08-16 15:02:00,82.0,68.6,29.98,ENE,69,3.9,7.0,64,0.00,CLR,,0.02,998.0,WeatherDisplay:10.37,2013-08-17 01:02:00,
2013-08-16 15:07:00,82.4,68.1,29.98,ENE,70,4.2,10.4,62,0.00,CLR,,0.02,842.0,WeatherDisplay:10.37,2013-08-17 01:07:00,
2013-08-16 15:12:00,82.7,68.8,29.98,ENE,73,6.8,13.8,63,0.00,CLR,,0.02,812.0,WeatherDisplay:10.37,2013-08-17 01:12:00,
2013-08-16 15:17:00,82.6,69.2,29.98,NE,46,7.0,10.4,64,0.00,BKN,,0.02,796.0,WeatherDisplay:10.37,2013-08-17 01:17:00,
2013-08-16 15:22:00,82.1,68.7,29.97,ENE,59,4.2,9.2,64,0.00,CLR,,0.02,786.0,WeatherDisplay:10.37,2013-08-17 01:22:00,
2013-08-16 15:27:00,81.8,68.4,29.97,North,5,5.6,11.5,64,0.00,CLR,,0.02,701.0,WeatherDisplay:10.37,2013-08-17 01:27:00,
2013-08-16 15:32:00,81.7,68.3,29.97,ENE,70,4.6,10.4,64,0.00,CLR,,0.02,765.0,WeatherDisplay:10.37,2013-08-17 01:32:00,
2013-08-16 15:37:00,81.8,68.4,29.97,East,81,4.8,11.5,64,0.00,CLR,,0.02,798.0,WeatherDisplay:10.37,2013-08-17 01:37:00,
2013-08-16 15:42:00,81.7,68.3,29.97,East,79,6.1,11.5,64,0.00,OVC,,0.02,209.0,WeatherDisplay:10.37,2013-08-17 01:42:00,
2013-08-16 15:47:00,81.2,68.3,29.97,NE,44,7.3,12.7,65,0.00,CLR,,0.02,752.0,WeatherDisplay:10.37,2013-08-17 01:47:00,
2013-08-16 15:52:00,80.7,68.3,29.97,North,5,7.6,15.0,66,0.00,CLR,,0.02,557.0,WeatherDisplay:10.37,2013-08-17 01:52:00,
2013-08-16 15:57:00,80.5,68.5,29.97,NE,42,4.9,11.5,67,0.00,CLR,,0.02,693.0,WeatherDisplay:10.37,2013-08-17 01:57:00,
2013-08-16 16:02:00,80.8,68.4,29.97,ENE,61,6.2,9.2,66,0.00,CLR,,0.02,647.0,WeatherDisplay:10.37,2013-08-17 02:02:00,
2013-08-16 16:07:00,80.8,67.9,29.97,ENE,74,6.7,11.5,65,0.00,CLR,,0.02,626.0,WeatherDisplay:10.37,2013-08-17 02:07:00,
2013-08-16 16:12:00,80.4,68.0,29.97,ENE,73,5.6,11.5,66,0.00,CLR,,0.02,598.0,WeatherDisplay:10.37,2013-08-17 02:12:00,
2013-08-16 16:17:00,80.2,67.8,29.97,NNE,29,6.9,13.8,66,0.00,CLR,,0.02,605.0,WeatherDisplay:10.37,2013-08-17 02:17:00,
2013-08-16 16:22:00,80.1,67.3,29.97,NE,41,7.4,15.0,65,0.00,CLR,,0.02,570.0,WeatherDisplay:10.37,2013-08-17 02:22:00,
2013-08-16 16:27:00,80.0,67.2,29.97,ENE,71,9.9,12.7,65,0.00,CLR,,0.02,555.0,WeatherDisplay:10.37,2013-08-17 02:27:00,
2013-08-16 16:32:00,79.8,67.4,29.97,North,5,8.3,11.5,66,0.00,CLR,,0.02,545.0,WeatherDisplay:10.37,2013-08-17 02:32:00,
2013-08-16 16:37:00,79.9,67.5,29.97,ENE,68,4.8,10.4,66,0.00,CLR,,0.02,577.0,WeatherDisplay:10.37,2013-08-17 02:37:00,
2013-08-16 16:42:00,80.1,68.2,29.97,NNE,30,6.5,15.0,67,0.00,CLR,,0.02,506.0,WeatherDisplay:10.37,2013-08-17 02:42:00,
2013-08-16 16:47:00,80.0,68.1,29.97,NE,45,7.0,11.5,67,0.00,CLR,,0.02,503.0,WeatherDisplay:10.37,2013-08-17 02:47:00,
2013-08-16 16:52:00,80.0,68.5,29.97,NE,46,5.0,8.1,68,0.00,CLR,,0.02,483.0,WeatherDisplay:10.37,2013-08-17 02:52:00,
2013-08-16 16:57:00,79.9,68.0,29.97,ENE,61,7.1,12.7,67,0.00,CLR,,0.02,517.0,WeatherDisplay:10.37,2013-08-17 02:57:00,
2013-08-16 17:02:00,79.7,67.8,29.97,NE,55,6.1,13.0,67,0.00,CLR,,0.02,496.0,WeatherDisplay:10.37,2013-08-17 03:02:00,
2013-08-16 17:07:00,79.5,68.0,29.98,East,88,5.1,11.5,68,0.00,CLR,,0.02,422.0,WeatherDisplay:10.37,2013-08-17 03:07:00,
2013-08-16 17:12:00,79.3,67.8,29.98,NE,38,5.3,8.1,68,0.00,CLR,,0.02,439.0,WeatherDisplay:10.37,2013-08-17 03:12:00,
2013-08-16 17:17:00,79.2,68.1,29.97,NE,55,6.1,9.2,69,0.00,CLR,,0.02,413.0,WeatherDisplay:10.37,2013-08-17 03:17:00,
2013-08-16 17:22:00,79.2,68.1,29.97,East,89,9.8,19.6,69,0.00,CLR,,0.02,454.0,WeatherDisplay:10.37,2013-08-17 03:22:00,
2013-08-16 17:27:00,79.0,68.0,29.98,ENE,65,6.6,13.0,69,0.00,CLR,,0.02,408.0,WeatherDisplay:10.37,2013-08-17 03:27:00,
2013-08-16 17:32:00,78.9,67.9,29.98,ENE,73,7.1,13.8,69,0.00,CLR,,0.02,378.0,WeatherDisplay:10.37,2013-08-17 03:32:00,
2013-08-16 17:37:00,78.6,67.6,29.98,North,360,8.9,12.7,69,0.00,CLR,,0.02,376.0,WeatherDisplay:10.37,2013-08-17 03:37:00,
2013-08-16 17:42:00,78.3,67.7,29.99,NE,36,5.9,11.5,70,0.00,CLR,,0.02,334.0,WeatherDisplay:10.37,2013-08-17 03:42:00,
2013-08-16 17:47:00,78.0,67.4,29.99,NNE,15,6.2,11.5,70,0.00,CLR,,0.02,295.0,WeatherDisplay:10.37,2013-08-17 03:47:00,
2013-08-16 17:52:00,77.7,67.5,29.99,NNE,25,6.4,16.1,71,0.00,CLR,,0.02,236.0,WeatherDisplay:10.37,2013-08-17 03:52:00,
2013-08-16 17:57:00,77.4,67.3,29.99,NNW,329,8.4,17.3,71,0.00,CLR,,0.02,199.0,WeatherDisplay:10.37,2013-08-17 03:57:00,
2013-08-16 18:01:00,77.2,67.1,29.99,NE,54,6.1,9.2,71,0.00,CLR,,0.02,186.0,WeatherDisplay:10.37,2013-08-17 04:01:00,
2013-08-16 18:06:00,77.0,66.9,29.99,NE,34,7.1,11.5,71,0.00,CLR,,0.02,160.0,WeatherDisplay:10.37,2013-08-17 04:06:00,
2013-08-16 18:11:00,76.8,67.1,29.99,NNE,27,3.1,5.8,72,0.00,CLR,,0.02,139.0,WeatherDisplay:10.37,2013-08-17 04:11:00,
2013-08-16 18:16:00,76.5,66.8,30.00,North,355,9.0,16.1,72,0.00,CLR,,0.02,113.0,WeatherDisplay:10.37,2013-08-17 04:16:00,
2013-08-16 18:21:00,76.2,66.9,30.00,NNW,337,5.7,10.4,73,0.00,CLR,,0.02,91.0,WeatherDisplay:10.37,2013-08-17 04:21:00,
2013-08-16 18:26:00,75.8,66.5,30.00,NE,49,7.3,12.7,73,0.00,BKN,,0.02,26.0,WeatherDisplay:10.37,2013-08-17 04:26:00,
2013-08-16 18:31:00,75.5,66.6,30.00,ENE,72,4.1,9.2,74,0.00,BKN,,0.02,25.0,WeatherDisplay:10.37,2013-08-17 04:31:00,
2013-08-16 18:36:00,75.3,66.8,30.00,NNE,24,6.8,12.7,75,0.00,BKN,,0.02,21.0,WeatherDisplay:10.37,2013-08-17 04:36:00,
2013-08-16 18:41:00,75.1,66.6,30.00,ENE,71,8.8,12.7,75,0.00,BKN,,0.02,21.0,WeatherDisplay:10.37,2013-08-17 04:41:00,
2013-08-16 18:46:00,74.9,66.4,30.00,NE,38,7.7,12.7,75,0.00,BKN,,0.02,16.0,WeatherDisplay:10.37,2013-08-17 04:46:00,
2013-08-16 18:51:00,74.7,66.2,30.00,NE,51,7.5,11.5,75,0.00,BKN,,0.02,12.0,WeatherDisplay:10.37,2013-08-17 04:51:00,
2013-08-16 18:56:00,74.6,66.1,30.00,NE,40,7.9,12.7,75,0.00,SCT,,0.02,9.0,WeatherDisplay:10.37,2013-08-17 04:56:00,
2013-08-16 19:01:00,74.4,66.0,30.00,NE,44,7.8,12.7,75,0.00,CLR,,0.02,5.0,WeatherDisplay:10.37,2013-08-17 05:01:00,
2013-08-16 19:06:00,74.3,65.9,30.01,NE,52,5.5,10.4,75,0.00,CLR,,0.02,0.0,WeatherDisplay:10.37,2013-08-17 05:06:00,
2013-08-16 19:11:00,74.2,65.8,30.01,NE,34,4.9,12.0,75,0.00,CLR,,0.02,0.0,WeatherDisplay:10.37,2013-08-17 05:11:00,
2013-08-16 19:16:00,74.1,66.0,30.01,ENE,60,4.9,11.5,76,0.00,CLR,,0.02,0.0,WeatherDisplay:10.37,2013-08-17 05:16:00,
2013-08-16 19:21:00,74.0,66.0,30.01,East,80,4.6,10.4,76,0.00,CLR,,0.02,0.0,WeatherDisplay:10.37,2013-08-17 05:21:00,
2013-08-16 19:26:00,73.9,65.9,30.01,NE,53,6.3,10.4,76,0.00,CLR,,0.02,0.0,WeatherDisplay:10.37,2013-08-17 05:26:00,
2013-08-16 19:31:00,73.8,66.1,30.01,NNE,28,7.0,11.5,77,0.00,CLR,,0.02,0.0,WeatherDisplay:10.37,2013-08-17 05:31:00,
2013-08-16 19:36:00,73.7,66.0,30.02,NNE,30,4.2,10.4,77,0.00,CLR,,0.02,0.0,WeatherDisplay:10.37,2013-08-17 05:36:00,
2013-08-16 19:41:00,73.6,65.9,30.02,NE,40,6.3,9.2,77,0.00,CLR,,0.02,0.0,WeatherDisplay:10.37,2013-08-17 05:41:00,
2013-08-16 19:46:00,73.5,65.8,30.02,ENE,65,6.3,10.0,77,0.00,CLR,,0.02,0.0,WeatherDisplay:10.37,2013-08-17 05:46:00,
2013-08-16 19:51:00,73.4,66.1,30.02,NE,55,5.0,9.0,78,0.00,CLR,,0.02,0.0,WeatherDisplay:10.37,2013-08-17 05:51:00,
2013-08-16 19:56:00,73.2,65.6,30.02,NNW,329,5.6,12.0,77,0.00,CLR,,0.02,0.0,WeatherDisplay:10.37,2013-08-17 05:56:00,
2013-08-16 20:01:00,73.2,65.6,30.03,ENE,59,6.4,19.6,77,0.00,CLR,,0.02,0.0,WeatherDisplay:10.37,2013-08-17 06:01:00,
2013-08-16 20:06:00,73.1,65.5,30.03,NNE,28,5.8,10.4,77,0.00,CLR,,0.02,0.0,WeatherDisplay:10.37,2013-08-17 06:06:00,
2013-08-16 20:11:00,73.0,65.4,30.03,ENE,66,8.3,15.0,77,0.00,CLR,,0.02,0.0,WeatherDisplay:10.37,2013-08-17 06:11:00,
2013-08-16 20:16:00,73.0,65.4,30.03,NE,36,8.1,14.0,77,0.00,CLR,,0.02,0.0,WeatherDisplay:10.37,2013-08-17 06:16:00,
2013-08-16 20:21:00,73.1,65.5,30.03,NNE,27,7.4,11.5,77,0.00,CLR,,0.02,0.0,WeatherDisplay:10.37,2013-08-17 06:21:00,
2013-08-16 20:26:00,73.0,65.7,30.03,NE,56,7.5,15.0,78,0.00,CLR,,0.02,0.0,WeatherDisplay:10.37,2013-08-17 06:26:00,
2013-08-16 20:31:00,73.0,65.7,30.03,NNE,23,6.8,11.5,78,0.00,CLR,,0.02,0.0,WeatherDisplay:10.37,2013-08-17 06:31:00,
2013-08-16 20:36:00,72.9,65.3,30.03,NNW,330,9.2,15.0,77,0.00,CLR,,0.02,0.0,WeatherDisplay:10.37,2013-08-17 06:36:00,
2013-08-16 20:41:00,72.8,65.2,30.04,ENE,70,6.8,11.5,77,0.00,CLR,,0.02,0.0,WeatherDisplay:10.37,2013-08-17 06:41:00,
2013-08-16 20:46:00,72.8,65.2,30.04,North,11,5.8,8.1,77,0.00,CLR,,0.02,0.0,WeatherDisplay:10.37,2013-08-17 06:46:00,
2013-08-16 20:51:00,72.8,65.2,30.04,NE,51,8.5,12.7,77,0.00,CLR,,0.02,0.0,WeatherDisplay:10.37,2013-08-17 06:51:00,
2013-08-16 20:56:00,72.8,65.2,30.04,NE,46,5.2,11.5,77,0.00,CLR,,0.02,0.0,WeatherDisplay:10.37,2013-08-17 06:56:00,
2013-08-16 21:01:00,72.8,65.2,30.04,NNE,17,4.4,8.1,77,0.00,CLR,,0.02,0.0,WeatherDisplay:10.37,2013-08-17 07:01:00,
2013-08-16 21:06:00,72.7,65.1,30.04,North,349,5.7,10.4,77,0.00,CLR,,0.02,0.0,WeatherDisplay:10.37,2013-08-17 07:06:00,
2013-08-16 21:11:00,72.7,65.1,30.04,NE,36,5.1,9.2,77,0.00,CLR,,0.02,0.0,WeatherDisplay:10.37,2013-08-17 07:11:00,
2013-08-16 21:16:00,72.7,65.1,30.04,NNE,20,4.9,10.4,77,0.00,CLR,,0.02,0.0,WeatherDisplay:10.37,2013-08-17 07:16:00,
2013-08-16 21:21:00,72.7,65.4,30.04,ENE,67,5.4,12.0,78,0.00,CLR,,0.02,0.0,WeatherDisplay:10.37,2013-08-17 07:21:00,
2013-08-16 21:26:00,72.6,65.3,30.04,NNE,19,8.1,16.1,78,0.00,CLR,,0.02,0.0,WeatherDisplay:10.37,2013-08-17 07:26:00,
2013-08-16 21:31:00,72.6,65.3,30.05,NE,42,8.6,11.5,78,0.00,CLR,,0.02,0.0,WeatherDisplay:10.37,2013-08-17 07:31:00,
2013-08-16 21:36:00,72.5,64.9,30.05,NE,48,7.1,11.5,77,0.00,CLR,,0.02,0.0,WeatherDisplay:10.37,2013-08-17 07:36:00,
2013-08-16 21:41:00,72.4,64.8,30.05,NE,53,6.4,12.7,77,0.00,CLR,,0.02,0.0,WeatherDisplay:10.37,2013-08-17 07:41:00,
2013-08-16 21:46:00,72.4,65.2,30.05,NNE,32,5.8,11.5,78,0.00,CLR,,0.02,0.0,WeatherDisplay:10.37,2013-08-17 07:46:00,
2013-08-16 21:51:00,72.3,65.1,30.05,NE,56,4.9,8.1,78,0.00,CLR,,0.02,0.0,WeatherDisplay:10.37,2013-08-17 07:51:00,
2013-08-16 21:56:00,72.3,65.1,30.05,East,83,5.1,11.0,78,0.00,CLR,,0.02,0.0,WeatherDisplay:10.37,2013-08-17 07:56:00,
2013-08-16 22:01:00,72.3,65.1,30.05,NNE,28,6.5,11.5,78,0.00,CLR,,0.02,0.0,WeatherDisplay:10.37,2013-08-17 08:01:00,
2013-08-16 22:06:00,72.3,65.1,30.05,NE,46,5.9,10.0,78,0.00,CLR,,0.02,0.0,WeatherDisplay:10.37,2013-08-17 08:06:00,
2013-08-16 22:11:00,72.3,65.1,30.05,NE,55,7.7,11.5,78,0.00,CLR,,0.02,0.0,WeatherDisplay:10.37,2013-08-17 08:11:00,
2013-08-16 22:16:00,72.2,65.0,30.05,NE,51,7.1,10.4,78,0.00,CLR,,0.02,0.0,WeatherDisplay:10.37,2013-08-17 08:16:00,
2013-08-16 22:21:00,72.2,65.0,30.06,ENE,64,9.0,12.7,78,0.00,CLR,,0.02,0.0,WeatherDisplay:10.37,2013-08-17 08:21:00,
2013-08-16 22:26:00,72.2,65.0,30.06,ENE,67,6.4,9.2,78,0.00,CLR,,0.02,0.0,WeatherDisplay:10.37,2013-08-17 08:26:00,
2013-08-16 22:31:00,72.2,65.0,30.06,East,84,6.9,11.5,78,0.00,CLR,,0.02,0.0,WeatherDisplay:10.37,2013-08-17 08:31:00,
2013-08-16 22:36:00,72.1,64.9,30.05,NE,46,6.3,11.5,78,0.00,CLR,,0.02,0.0,WeatherDisplay:10.37,2013-08-17 08:36:00,
2013-08-16 22:41:00,72.0,64.8,30.05,ENE,63,7.3,11.5,78,0.00,CLR,,0.02,0.0,WeatherDisplay:10.37,2013-08-17 08:41:00,
2013-08-16 22:46:00,72.0,64.8,30.05,ENE,65,5.1,11.5,78,0.00,CLR,,0.02,0.0,WeatherDisplay:10.37,2013-08-17 08:46:00,
2013-08-16 22:51:00,72.0,64.8,30.05,NNE,19,5.1,9.2,78,0.00,CLR,,0.02,0.0,WeatherDisplay:10.37,2013-08-17 08:51:00,
2013-08-16 22:56:00,72.1,64.9,30.05,North,5,5.5,10.4,78,0.00,CLR,,0.02,0.0,WeatherDisplay:10.37,2013-08-17 08:56:00,
2013-08-16 23:01:00,72.1,64.9,30.05,NE,38,4.7,8.1,78,0.00,CLR,,0.02,0.0,WeatherDisplay:10.37,2013-08-17 09:01:00,
2013-08-16 23:06:00,72.2,65.0,30.05,NE,37,5.0,9.0,78,0.00,CLR,,0.02,0.0,WeatherDisplay:10.37,2013-08-17 09:06:00,
2013-08-16 23:11:00,72.3,65.1,30.05,NE,51,3.7,7.0,78,0.00,CLR,,0.02,0.0,WeatherDisplay:10.37,2013-08-17 09:11:00,
2013-08-16 23:16:00,72.3,65.1,30.04,ENE,61,4.7,8.1,78,0.00,CLR,,0.02,0.0,WeatherDisplay:10.37,2013-08-17 09:16:00,
2013-08-16 23:21:00,72.2,65.3,30.04,NNE,13,5.3,11.5,79,0.00,CLR,,0.02,0.0,WeatherDisplay:10.37,2013-08-17 09:21:00,
2013-08-16 23:26:00,72.1,65.2,30.04,ENE,58,5.3,9.2,79,0.00,CLR,,0.02,0.0,WeatherDisplay:10.37,2013-08-17 09:26:00,
2013-08-16 23:31:00,72.1,65.6,30.04,NNE,18,5.8,11.5,80,0.00,CLR,,0.02,0.0,WeatherDisplay:10.37,2013-08-17 09:31:00,
2013-08-16 23:36:00,72.1,65.2,30.04,ENE,64,4.8,8.1,79,0.00,CLR,,0.02,0.0,WeatherDisplay:10.37,2013-08-17 09:36:00,
2013-08-16 23:41:00,72.0,65.5,30.04,NE,38,3.4,4.6,80,0.00,CLR,,0.02,0.0,WeatherDisplay:10.37,2013-08-17 09:41:00,
2013-08-16 23:46:00,72.0,65.1,30.04,NE,48,4.7,12.7,79,0.00,CLR,,0.02,0.0,WeatherDisplay:10.37,2013-08-17 09:46:00,
2013-08-16 23:51:00,71.9,65.0,30.04,ENE,72,6.7,10.4,79,0.00,CLR,,0.02,0.0,WeatherDisplay:10.37,2013-08-17 09:51:00,
2013-08-16 23:56:00,71.9,65.0,30.04,North,355,5.5,10.4,79,0.00,CLR,,0.02,0.0,WeatherDisplay:10.37,2013-08-17 09:56:00,